sat.trackr.live / text

‹ back to catalog

CYGFM08

NORAD 41888 · 2016-078E

PAYLOAD INACTIVE UNKNOWN

§ Identity

Operator
Country
US
Launch date
2016-12-15
Launch site
ERAS
Launch vehicle
Mass (kg)
RCS (m²)
0.20

Purposes: earth_obs

External: N2YO · Heavens-Above · Gunter

§ Orbital elements

Epoch: 2026-09-20T04:43:34.830624Z

Period
92.01 min
Inclination
34.9432°
Eccentricity
0.0005090
Mean motion
15.65127494 rev/d
Perigee alt
369.4 km
Apogee alt
376.3 km
Semi-major
6,751.0 km
B*
2.5740e-4
RAAN
326.4377°
Arg perigee
12.7874°
Mean anomaly
347.2981°
Rev number
54,384

§ Raw data

CYGFM081 41888U 16078E   26263.19693091  .00026351  00000+0  25740-3 0  99952 41888  34.9432 326.4377 0005090  12.7874 347.2981 15.65127494543843

JSON: /api/v1/satellites/41888 · /tle

For live sub-satellite position, see the globe view (requires WebGL).

§ Visibility from observer

Set your observer location to see the next 7 days of passes ≥ 10°. The values pass through the URL so the page stays shareable.

No JS? Fill the form by hand. The geolocation button needs JavaScript.